St. Clothilde, Quebec

1:42 AM EDT on April 25, 2017 (GMT -0400)
St. Clothilde

Weather History for CWIT - October, 2012

Change the Weather History Date:

Saturday, October 13, 2012

  Actual Average Record
Temperature  
Mean Temperature 38 °F -  
Max Temperature 50 °F - - ()
Min Temperature 26 °F - - ()
Degree Days  
Heating Degree Days 27    
Moisture  
Dew Point 29 °F    
Average Humidity 68    
Maximum Humidity 99    
Minimum Humidity 40    
Precipitation  
Precipitation 0.24 in - - ()
Sea Level Pressure  
Sea Level Pressure 30.31 in    
Wind  
Wind Speed 3 mph ()    
Max Wind Speed 9 mph    
Max Gust Speed -    
T = Trace of Precipitation, MM = Missing Value Source: Averaged Metar Reports

Daily Weather History Graph

Daily Weather History Graph

Search for Another Location

Airport or City:

Trip Planner

Search our weather history database for the weather conditions in past years. The results will help you decide how hot, cold, wet, or windy it might be!

Date:

Astronomy

Oct. 13, 2012 Rise Set
Actual Time 7:08 AM EDT 6:12 PM EDT
Civil Twilight 6:38 AM EDT 6:41 PM EDT
Nautical Twilight 6:04 AM EDT 7:15 PM EDT
Astronomical Twilight 5:30 AM EDT 7:50 PM EDT
Moon 4:51 AM EDT (10/13) 4:57 PM EDT (10/13)
Length of Visible Light 12h 02m
Length of Day
11h 03m
Waning Crescent, 5% of the Moon is Illuminated
Oct 13
Waning Crescent
Oct 15
New
Oct 21
First Quarter
Oct 29
Full
Nov 6
Last Quarter

Hourly Weather History & Observations

Time (EDT) Temp. Windchill Dew Point Humidity Pressure Visibility Wind Dir Wind Speed Gust Speed Precip Events Conditions
2:00 AM 30 °F - 25 °F 76% 30.38 in - West 3.5 mph - -  
5:00 AM 27.1 °F - 26.1 °F 96% 30.39 in - West 2.3 mph - N/A   Unknown
6:00 AM 27.7 °F - 26.4 °F 95% 30.39 in - West 2.3 mph - N/A   Unknown
7:00 AM 27.1 °F - 26.8 °F 99% 30.40 in - WSW 1.2 mph - N/A   Unknown
8:00 AM 28 °F - 28 °F 99% 30.40 in - South 1.2 mph - -  
8:00 AM 28.4 °F - 27.9 °F 98% 30.40 in - South 1.2 mph - N/A   Unknown
9:00 AM 34.2 °F 31.2 °F 29.5 °F 83% 30.40 in - SE 3.5 mph - N/A   Unknown
10:00 AM 41.2 °F 39.2 °F 29.8 °F 64% 30.40 in - SW 3.5 mph - N/A   Unknown
1:00 PM 49.3 °F - 27.9 °F 44% 30.35 in - West 9.2 mph - N/A   Unknown
2:00 PM 50.9 °F - 27.9 °F 41% 30.31 in - West 8.1 mph - N/A   Unknown
3:00 PM 48.6 °F - 26.1 °F 42% 30.30 in - West 4.6 mph - N/A   Unknown
4:00 PM 49.1 °F - 25.3 °F 40% 30.30 in - West 5.8 mph - N/A   Unknown
5:00 PM 48.6 °F - 25.5 °F 41% 30.28 in - WSW 2.3 mph - N/A   Unknown
6:00 PM 46.0 °F - 31.6 °F 57% 30.27 in - Calm Calm - N/A   Unknown
7:00 PM 43.3 °F - 35.2 °F 73% 30.25 in - SSE 1.2 mph - N/A   Unknown
8:00 PM 43.2 °F - 30.7 °F 62% 30.21 in - ESE 1.2 mph - N/A   Unknown
9:00 PM 42.8 °F - 32.0 °F 66% 30.19 in - ESE 1.2 mph - N/A   Unknown
10:00 PM 44.4 °F 42.0 °F 30.6 °F 58% 30.16 in - SSE 4.6 mph - N/A   Unknown
11:00 PM 44.2 °F 42.7 °F 30.9 °F 60% 30.17 in - SW 3.5 mph - N/A   Unknown